SCP
1 1 0 0 0 0 0 0 0 0 1 0 0 0 0 0 0 0 0 0 0 0 0 0 0 0 0 0 0 0 0 0 0 0 0 0 0 0 0 0 0 0 0
1 0 0 0 0 0 0 0 0 0 0 0 0 0 0 0 0 0 0 0 0 0 0 0 0 0 0 0 0 0 0 0 0 0 0 0 0 0 0 0 0 0 0
0 0 0 0 0 0 0 0 0 0 0 0 0 0 0 0 0 0 0 0 0 0 0 0 0 0 0 0 0 0 0 0 0 0 0 0 0 0 0 0 0 0 0
0 0 0 0 0 0 0 0 0 0 0 0 0 0 0 0 0 0 0 0 0 0 0 0 0 0 0 0 0 0 0 0 0 0 0 0 0 0 0 0 0 0 0
-0 -0 0 0 0 0 0 0 0 0 0 0 0 0 0 0 0 0 0 0 0 0 0 0 0 0 0 0 0 0 0 0 0 0 0 0 0 0 0 0 0 0 0
-0 -0 -0 -0 -0 0 0 0 0 0 0 0 0 0 0 0 0 0 0 0 0 0 0 0 0 0 0 0 0 0 0 0 0 0 0 0 0 0 0 0 0 0 0
-0 -0 -0 -0 -0 -0 0 0 0 0 0 0 0 0 0 0 0 0 0 0 0 0 0 0 0 0 0 0 0 0 0 0 0 0 0 0 0 0 0 0 0 0 0
-0 -0 -0 -0 -0 0 0 0 0 0 0 0 0 0 0 0 0 0 0 0 0 0 0 0 0 0 0 0 0 0 0 0 0 0 0 0 0 0 0 0 0 0 0
0 -0 -0 -0 0 0 0 0 0 0 0 0 0 0 0 0 0 0 0 0 0 0 0 0 0 0 0 0 0 0 0 0 0 0 0 0 0 0 0 0 0 0 0
0 0 -0 -0 0 0 0 0 0 0 0 0 0 0 0 0 0 0 0 0 0 0 0 0 0 0 0 0 0 0 0 0 0 0 0 0 0 0 0 0 0 0 0
0 0 0 0 0 0 0 0 0 0 0 0 0 0 0 0 0 0 0 0 0 0 0 0 0 0 0 0 0 0 0 0 0 0 0 0 0 0 0 0 0 0 0
0 0 0 0 0 0 0 0 0 0 0 0 0 0 0 0 0 0 0 0 0 0 0 0 0 0 0 0 0 0 0 0 0 0 0 0 0 0 0 0 0 0 0
0 0 0 0 0 0 0 0 0 0 0 0 0 0 0 0 0 0 0 0 0 0 0 0 0 0 0 0 0 0 0 0 0 0 0 0 0 0 0 0 0 0 0
0 0 0 0 0 0 0 0 0 0 0 0 0 0 0 0 0 0 0 0 0 0 0 0 0 0 0 0 0 0 0 0 0 0 0 0 0 0 0 0 0 0 0
0 0 0 0 0 0 0 0 0 0 0 0 0 0 0 0 0 0 0 0 0 0 0 0 0 0 0 0 0 0 0 0 0 0 0 0 0 0 0 0 0 0 0
0 0 0 0 0 0 0 0 0 0 0 0 0 0 0 0 0 0 0 0 0 0 0 0 0 0 0 0 0 0 0 0 0 0 0 0 0 0 0 0 0 0 0
0 0 0 0 0 0 0 0 0 0 0 0 0 0 0 0 0 0 0 0 0 0 0 0 0 0 0 0 0 0 0 0 0 0 0 0 0 0 0 0 0 0 0
0 0 0 0 0 0 0 0 0 0 0 0 0 0 0 0 0 0 0 0 0 0 0 0 0 0 0 0 0 0 0 0 0 0 0 0 0 0 0 0 0 0 0
0 0 0 0 0 0 0 0 0 0 0 0 0 0 0 0 0 0 0 0 0 0 0 0 0 0 0 0 0 0 0 0 0 0 0 0 0 0 0 0 0 0 0
0 0 0 0 0 0 0 0 0 0 0 0 0 0 0 0 0 0 0 0 0 0 0 0 0 0 0 0 0 0 0 0 0 0 0 0 0 0 0 0 0 0 0
0 0 0 0 0 0 0 0 0 0 0 0 0 0 0 0 0 0 0 0 0 0 0 0 0 0 0 0 0 0 0 0 0 0 0 0 0 0 0 0 0 0 0
0 0 0 0 0 0 0 0 0 0 0 0 0 0 0 0 0 0 0 0 0 0 0 0 0 0 0 0 0 0 0 0 0 0 0 0 0 0 0 0 0 0 0
0 0 0 0 0 0 0 0 0 0 0 0 0 0 0 0 0 0 0 0 0 0 0 0 0 0 0 0 0 0 0 0 0 0 0 0 0 0 0 0 0 0 0
0 0 0 0 0 0 0 0 0 0 0 0 0 0 0 0 0 0 0 0 0 0 0 0 0 0 0 0 0 0 0 0 0 0 -0 -0 -0 -0 0 0 0 0 0
0 0 0 0 0 0 0 0 0 0 0 0 0 0 0 0 0 0 0 0 0 0 0 0 0 0 0 0 0 0 0 0 0 -0 -0 -0 0 0 0 0 0 0 0
0 0 0 0 0 0 0 0 0 0 0 0 0 0 0 0 0 0 0 0 0 0 0 0 0 0 0 0 0 0 0 0 -0 -0 -0 0 0 0 0 0 0 0 0
Wind_Speed
8 7 6 6 5 5 6 5 1 1 0 1 2 2 2 2 2 2 4 6 6 7 6 4 3 3 2 2 1 1 1 1 1 1 4 4 4 4 4 4 4 4 5
7 6 5 5 5 4 4 3 0 1 1 2 2 2 2 3 2 2 3 5 6 7 6 6 4 4 3 1 0 1 1 1 0 1 1 4 5 4 2 2 2 3 3
6 5 6 6 7 8 7 4 4 4 3 2 2 1 1 1 1 1 2 3 5 6 6 7 5 5 4 3 2 2 3 2 1 1 2 1 3 4 3 2 2 2 2
6 6 7 9 9 8 7 7 6 5 5 4 2 1 1 1 2 2 2 2 3 4 6 7 6 6 4 4 4 3 3 3 2 1 2 3 3 2 4 4 2 3 3
4 5 6 7 6 6 6 6 7 7 6 5 4 3 3 2 2 2 2 2 2 4 5 5 6 6 5 5 5 4 4 3 3 3 2 2 2 3 3 4 4 4 2
2 3 4 5 5 5 5 5 6 6 6 6 6 6 5 5 5 4 4 3 3 3 3 4 5 6 5 6 6 5 5 4 4 4 3 3 3 3 3 4 4 4 3
3 3 3 3 2 2 2 3 3 3 4 4 5 5 5 5 5 5 4 4 3 3 4 3 4 5 6 6 5 5 5 5 5 5 4 4 5 4 3 3 3 3 3
3 3 3 3 3 3 2 2 1 0 1 2 2 3 3 2 3 4 4 4 3 4 5 5 4 4 5 6 5 4 5 5 5 6 5 4 5 4 4 4 3 2 2
5 5 5 5 5 5 5 5 4 3 2 2 2 2 2 2 3 4 4 3 4 4 6 6 6 5 4 5 5 4 5 5 6 6 6 5 4 4 4 4 4 3 2
4 5 5 6 6 7 6 5 5 5 5 5 5 4 4 4 4 3 4 4 4 4 5 6 6 6 6 5 5 4 5 6 6 5 6 6 4 4 4 4 4 5 4
4 5 5 6 6 5 5 5 6 6 6 7 7 7 7 6 6 5 6 5 5 5 5 5 5 6 6 5 5 6 6 7 7 6 6 7 5 4 4 4 4 4 4
5 5 6 5 4 4 5 6 7 7 8 8 8 8 8 7 7 7 8 7 6 6 6 5 5 6 6 5 5 6 6 6 7 7 6 7 5 5 4 4 4 4 4
6 6 5 4 4 5 6 7 8 9 10 9 9 9 9 9 9 9 9 8 8 7 7 6 6 6 6 6 6 6 6 6 7 7 7 7 6 6 4 4 4 3 4
5 5 5 6 7 7 8 8 9 10 10 9 10 10 11 11 11 11 10 9 9 8 8 8 7 7 7 6 6 6 6 6 7 7 7 7 7 7 6 5 4 4 4
7 8 8 8 8 8 9 9 9 10 10 9 10 12 12 12 11 10 10 10 10 10 9 8 8 7 6 7 6 5 5 5 6 6 6 7 8 9 7 5 5 5 5
10 10 10 10 10 10 10 10 10 10 9 9 11 11 10 10 10 11 11 10 10 10 9 9 9 8 8 9 10 7 5 5 6 6 6 6 7 9 9 9 9 9 8
13 12 11 11 11 11 10 10 10 9 8 9 10 10 10 10 10 10 9 9 10 10 9 9 9 9 10 13 13 12 6 5 5 6 6 6 6 7 5 6 7 7 9
12 12 11 10 10 10 9 9 9 9 9 9 9 9 9 10 10 9 9 9 8 7 8 9 9 8 10 13 13 13 7 5 6 6 7 7 7 7 7 6 5 4 5
11 11 10 11 10 10 11 11 12 11 11 11 10 9 9 9 9 9 9 8 6 7 7 6 8 8 9 12 13 11 5 5 6 6 7 8 9 11 11 8 7 6 4
9 9 9 9 11 11 11 12 12 12 12 12 11 10 9 9 10 9 8 7 6 7 7 8 8 8 9 11 13 11 4 5 5 5 6 10 11 13 14 10 10 9 7
9 9 10 10 11 12 12 13 14 14 14 13 12 12 11 10 10 9 8 7 7 7 7 8 7 8 9 11 13 12 6 6 5 4 4 5 12 14 15 12 9 11 11
10 11 11 12 13 12 12 14 15 15 14 13 13 13 11 11 10 8 7 7 7 7 7 6 6 6 7 9 11 13 12 9 5 4 3 4 11 15 15 11 11 15 12
12 11 13 15 14 13 13 16 16 15 14 13 13 12 11 9 8 8 7 6 6 6 6 5 5 5 5 6 12 13 13 12 6 4 5 4 10 14 12 13 16 14 9
12 12 15 16 17 16 15 15 16 14 13 12 11 10 9 8 7 6 6 5 5 5 5 5 6 5 4 4 4 4 5 7 6 4 4 4 9 10 10 12 12 8 8
12 13 15 16 18 17 17 16 14 13 12 11 10 8 7 6 6 5 5 6 5 6 6 5 5 5 5 6 9 7 6 6 5 5 3 3 6 7 7 8 7 6 8
14 15 16 16 17 17 16 15 13 12 11 9 8 5 5 4 4 3 3 5 6 8 10 9 6 4 5 7 9 10 9 9 10 7 5 5 7 9 10 10 7 6 8
Wind_Direction
55 55 60 72 79 73 82 82 65 291 360 324 308 303 294 280 263 225 195 180 169 162 160 158 156 141 146 176 200 212 275 285 285 341 315 298 280 269 262 264 269 265 256
47 45 47 52 55 67 83 102 62 293 238 245 252 237 226 256 250 240 205 187 173 168 165 160 161 160 158 163 162 166 183 271 283 164 315 328 332 333 306 304 296 300 303
52 52 51 52 56 44 33 30 16 360 340 287 270 300 330 311 338 273 238 214 186 176 168 171 169 174 172 185 197 191 183 209 266 194 181 234 284 308 307 298 309 327 319
42 50 53 53 52 46 37 32 32 29 4 347 343 304 244 250 250 252 249 241 219 199 185 181 181 185 184 189 201 191 185 177 220 263 218 208 207 249 306 310 306 318 317
52 62 65 65 59 49 41 34 32 29 21 25 20 18 4 325 320 335 330 304 264 233 214 200 192 195 194 196 198 199 205 195 197 207 221 242 237 215 228 289 311 322 308
90 80 75 72 64 54 48 42 37 26 16 22 22 23 11 357 0 357 342 326 314 294 267 235 215 206 201 203 203 203 209 212 214 214 207 210 223 223 217 252 290 304 304
163 123 99 92 99 89 74 60 49 25 13 21 18 15 10 5 2 348 334 330 327 322 311 282 241 221 212 210 204 203 214 215 220 223 222 220 223 217 214 234 262 275 294
179 164 169 176 185 183 174 163 140 334 348 8 355 353 353 350 337 332 330 331 323 312 314 315 284 252 229 218 208 210 219 220 224 232 230 227 231 217 210 210 224 272 288
182 189 196 200 205 207 207 199 195 218 253 267 280 289 306 312 310 313 319 316 316 319 334 330 321 304 274 247 226 223 226 224 227 233 235 234 237 225 218 208 196 203 240
193 203 213 220 221 216 212 202 196 207 224 234 242 243 244 248 257 275 288 293 298 309 320 325 324 321 310 286 256 245 239 232 235 233 235 237 237 232 225 215 207 200 201
242 251 252 248 243 229 213 206 211 217 227 233 237 240 241 239 239 247 256 262 270 283 294 300 306 307 304 301 284 263 250 240 241 240 234 236 231 232 232 223 214 204 193
294 292 295 298 295 265 244 234 232 231 233 234 236 240 243 241 240 243 246 247 254 262 267 274 283 289 294 298 296 289 278 256 246 240 234 238 234 230 230 226 223 209 191
328 331 332 318 285 263 252 248 243 240 240 237 237 241 243 241 240 241 242 240 242 249 254 256 261 267 274 279 282 284 285 272 254 239 229 230 223 229 229 227 224 209 192
334 323 305 287 273 264 256 253 251 247 245 241 237 239 242 241 240 240 240 238 235 237 243 245 247 252 260 266 271 277 283 281 270 249 230 222 215 219 219 222 218 193 174
318 306 295 283 275 269 263 257 254 250 245 240 236 237 238 239 239 238 238 237 234 237 236 238 242 245 249 253 253 259 278 285 284 267 238 223 216 212 209 209 203 180 172
308 302 295 289 283 277 273 269 263 257 248 241 239 238 236 235 234 234 234 234 234 236 233 233 235 239 246 252 257 258 263 271 275 270 252 229 213 210 210 211 202 186 176
308 303 298 293 290 288 285 285 280 276 266 255 250 243 236 233 232 232 230 229 231 231 230 231 229 232 239 245 252 256 251 253 262 258 245 225 207 193 190 195 191 189 184
302 302 301 300 298 297 300 297 295 290 282 274 268 259 248 241 233 227 225 226 225 222 225 229 227 228 237 239 242 249 245 245 253 252 240 223 199 193 181 170 162 158 162
301 303 306 309 311 312 311 309 304 298 291 286 280 276 270 262 247 232 225 221 219 222 221 221 221 223 236 238 239 240 231 239 252 257 248 221 200 193 178 165 156 142 134
307 312 317 316 315 312 312 310 306 302 296 291 286 279 272 267 257 242 232 225 219 223 223 224 220 219 228 235 237 232 214 232 248 260 255 223 202 186 177 169 160 152 145
315 317 316 313 309 307 306 302 298 294 291 288 283 278 269 262 258 248 238 231 227 224 222 224 224 222 226 233 233 226 203 213 229 245 253 224 198 184 179 170 167 159 146
316 316 314 312 308 305 303 300 297 294 292 288 283 278 269 264 265 249 240 230 223 222 222 223 229 229 228 227 230 224 214 208 209 225 238 231 194 184 176 169 158 148 139
316 316 316 314 312 309 304 302 300 298 294 290 285 279 271 260 255 249 242 233 220 218 218 213 221 231 228 228 228 223 219 212 203 214 225 228 193 181 176 165 155 151 143
320 322 321 320 319 316 312 304 302 301 295 290 286 282 273 262 253 246 238 229 221 217 215 212 217 223 223 219 209 203 203 204 205 211 217 191 183 180 169 160 159 156 148
323 323 323 320 318 317 315 313 310 307 302 297 291 286 276 264 255 244 234 227 222 212 207 209 204 203 215 218 197 179 181 183 187 172 162 162 176 173 163 161 156 143 138
325 324 323 321 319 319 318 319 318 317 313 309 304 295 284 273 260 249 254 237 234 235 225 218 201 204 206 191 184 183 180 177 170 164 166 177 180 170 164 161 150 142 144